• In Uzbekistan
  • List of Countries
  • For 7 days
  • Water Temperature
  • Satellite Maps
  • Weather Map
  • Weather Widgets
  • user-avatar
    Login

    Hourly Weather Linz

    Today, 27 April, Thursday

    Time Temperature Precipitation Wind Pressure Humidity
    00:00 +6°C° 0.9 mm 1 mps 729 mmHg 98%
    01:00 +6°C° 0.9 mm 1 mps 728 mmHg 98%
    02:00 +6°C° 0.8 mm 1 mps 728 mmHg 98%
    03:00 +6°C° 0.8 mm 1 mps 728 mmHg 97%
    04:00 +5°C° 0.8 mm 1 mps 728 mmHg 97%
    05:00 +6°C° 0.4 mm 1 mps 728 mmHg 97%
    06:00 +6°C° 0.4 mm 1 mps 729 mmHg 96%
    07:00 +6°C° 0.4 mm 1 mps 729 mmHg 96%
    08:00 +6°C° 0.4 mm 1 mps 729 mmHg 95%
    09:00 +7°C° 0.4 mm 1 mps 729 mmHg 94%
    10:00 +7°C° 0.4 mm 1 mps 730 mmHg 93%
    11:00 +8°C° 0.3 mm 1 mps 730 mmHg 91%
    12:00 +8°C° 0.3 mm 1 mps 730 mmHg 90%
    13:00 +8°C° 0.3 mm 1 mps 730 mmHg 89%
    14:00 +8°C° 0.2 mm 2 mps 730 mmHg 89%
    15:00 +8°C° 0.2 mm 2 mps 730 mmHg 90%
    16:00 +8°C° 0.2 mm 2 mps 730 mmHg 91%
    17:00 +7°C° 0.3 mm 2 mps 729 mmHg 93%
    18:00 +7°C° 0.3 mm 2 mps 729 mmHg 94%
    19:00 +6°C° 0.3 mm 2 mps 729 mmHg 96%
    20:00 +6°C° 0.9 mm 2 mps 729 mmHg 96%
    21:00 +6°C° 0.9 mm 2 mps 729 mmHg 97%
    22:00 +4°C° 0.9 mm 3 mps 729 mmHg 97%
    23:00 +4°C° 1.3 mm 3 mps 728 mmHg 97%

    Tomorrow, 28 April, Friday

    Time Temperature Precipitation Wind Pressure Humidity
    00:00 +4°C° 1.3 mm 3 mps 728 mmHg 97%
    01:00 +4°C° 1.3 mm 3 mps 727 mmHg 97%
    02:00 +4°C° 1.3 mm 3 mps 727 mmHg 97%
    03:00 +5°C° 1.3 mm 2 mps 726 mmHg 97%
    04:00 +5°C° 1.3 mm 2 mps 726 mmHg 97%
    05:00 +5°C° 0.3 mm 2 mps 726 mmHg 96%
    06:00 +5°C° 0.3 mm 2 mps 726 mmHg 96%
    07:00 +5°C° 0.3 mm 2 mps 726 mmHg 96%
    08:00 +5°C° 0.6 mm 2 mps 726 mmHg 95%
    09:00 +6°C° 0.6 mm 2 mps 726 mmHg 94%
    10:00 +6°C° 0.6 mm 2 mps 726 mmHg 94%
    11:00 +6°C° 1.1 mm 2 mps 726 mmHg 93%
    12:00 +6°C° 1.1 mm 2 mps 726 mmHg 93%
    13:00 +8°C° 1.1 mm 1 mps 726 mmHg 93%
    14:00 +7°C° 0.2 mm 2 mps 727 mmHg 92%
    15:00 +7°C° 0.2 mm 2 mps 727 mmHg 91%
    16:00 +8°C° 0.2 mm 2 mps 727 mmHg 90%
    17:00 +7°C° 0.4 mm 2 mps 728 mmHg 92%
    18:00 +7°C° 0.4 mm 2 mps 728 mmHg 94%
    19:00 +6°C° 0.4 mm 2 mps 729 mmHg 97%
    20:00 +6°C° 0.5 mm 2 mps 729 mmHg 97%
    21:00 +5°C° 0.5 mm 2 mps 730 mmHg 97%
    22:00 +5°C° 0.5 mm 2 mps 731 mmHg 98%
    23:00 +5°C° 0.4 mm 2 mps 731 mmHg 97%

    Day after tomorrow, 29 April, Saturday

    Time Temperature Precipitation Wind Pressure Humidity
    00:00 +5°C° 0.4 mm 2 mps 731 mmHg 97%
    01:00 +5°C° 0.4 mm 2 mps 732 mmHg 97%
    02:00 +4°C° 0.2 mm 2 mps 732 mmHg 97%
    03:00 +4°C° 0.2 mm 2 mps 732 mmHg 98%
    04:00 +4°C° 0.2 mm 2 mps 733 mmHg 98%
    05:00 +4°C° 0.1 mm 2 mps 733 mmHg 97%
    06:00 +5°C° 0.1 mm 2 mps 733 mmHg 96%
    07:00 +4°C° 0.1 mm 3 mps 733 mmHg 96%
    08:00 +5°C° 0.1 mm 3 mps 733 mmHg 94%
    09:00 +7°C° 0.1 mm 3 mps 733 mmHg 91%
    10:00 +7°C° 0.1 mm 2 mps 733 mmHg 89%
    11:00 +8°C° 0.1 mm 2 mps 733 mmHg 85%
    12:00 +9°C° 0.1 mm 2 mps 733 mmHg 81%
    13:00 +10°C° 0.1 mm 2 mps 733 mmHg 77%
    14:00 +10°C° 0 mm 2 mps 733 mmHg 75%
    15:00 +12°C° 0 mm 2 mps 732 mmHg 72%
    16:00 +12°C° 0 mm 2 mps 732 mmHg 70%
    17:00 +10°C° 0 mm 1 mps 732 mmHg 77%
    18:00 +8°C° 0 mm 1 mps 732 mmHg 85%
    19:00 +6°C° 0 mm 1 mps 732 mmHg 93%
    20:00 +5°C° 0 mm 1 mps 732 mmHg 93%
    21:00 +4°C° 0 mm 1 mps 733 mmHg 93%
    22:00 +4°C° 0 mm 1 mps 733 mmHg 93%
    23:00 +3°C° 0 mm 1 mps 733 mmHg 93%

    30 April, Sunday

    Time Temperature Precipitation Wind Pressure Humidity
    00:00 +3°C° 0 mm 1 mps 733 mmHg 93%
    01:00 +3°C° 0 mm 1 mps 733 mmHg 93%
    02:00 +3°C° 0 mm 1 mps 733 mmHg 93%
    03:00 +3°C° 0 mm 1 mps 733 mmHg 92%
    04:00 +3°C° 0 mm 1 mps 733 mmHg 92%
    05:00 +5°C° 0 mm 1 mps 733 mmHg 88%
    06:00 +7°C° 0 mm 1 mps 733 mmHg 84%
    07:00 +8°C° 0 mm 2 mps 733 mmHg 80%
    08:00 +9°C° 0 mm 2 mps 733 mmHg 75%
    09:00 +12°C° 0 mm 2 mps 733 mmHg 70%
    10:00 +13°C° 0 mm 3 mps 733 mmHg 66%
    11:00 +14°C° 0 mm 3 mps 732 mmHg 63%
    12:00 +16°C° 0 mm 3 mps 732 mmHg 61%
    13:00 +17°C° 0 mm 3 mps 731 mmHg 59%
    14:00 +18°C° 0 mm 3 mps 731 mmHg 60%
    15:00 +18°C° 0 mm 3 mps 731 mmHg 61%
    16:00 +18°C° 0 mm 3 mps 731 mmHg 62%
    17:00 +16°C° 0 mm 3 mps 731 mmHg 71%
    18:00 +13°C° 0 mm 3 mps 731 mmHg 80%
    19:00 +11°C° 0 mm 3 mps 731 mmHg 89%
    20:00 +10°C° 0 mm 3 mps 731 mmHg 90%
    21:00 +9°C° 0 mm 3 mps 731 mmHg 91%
    22:00 +8°C° 0 mm 2 mps 731 mmHg 92%
    23:00 +7°C° 0 mm 2 mps 731 mmHg 92%

    1 May, Monday

    Time Temperature Precipitation Wind Pressure Humidity
    00:00 +6°C° 0 mm 2 mps 731 mmHg 93%
    01:00 +6°C° 0 mm 2 mps 731 mmHg 93%
    02:00 +6°C° 0 mm 2 mps 731 mmHg 93%
    03:00 +5°C° 0 mm 2 mps 731 mmHg 93%
    04:00 +5°C° 0 mm 2 mps 731 mmHg 94%
    05:00 +6°C° 0 mm 2 mps 731 mmHg 90%
    06:00 +8°C° 0 mm 2 mps 731 mmHg 86%
    07:00 +9°C° 0 mm 2 mps 731 mmHg 82%
    08:00 +11°C° 0 mm 3 mps 731 mmHg 76%
    09:00 +13°C° 0 mm 4 mps 730 mmHg 70%
    10:00 +15°C° 0 mm 4 mps 730 mmHg 64%
    11:00 +17°C° 0 mm 4 mps 730 mmHg 60%
    12:00 +19°C° 0 mm 5 mps 730 mmHg 57%
    13:00 +20°C° 0 mm 5 mps 730 mmHg 53%
    14:00 +20°C° 0 mm 5 mps 729 mmHg 55%
    15:00 +20°C° 0 mm 4 mps 729 mmHg 57%
    16:00 +20°C° 0 mm 4 mps 729 mmHg 58%
    17:00 +18°C° 0 mm 4 mps 729 mmHg 65%
    18:00 +15°C° 0 mm 4 mps 729 mmHg 72%
    19:00 +13°C° 0 mm 4 mps 729 mmHg 79%
    20:00 +12°C° 0 mm 3 mps 730 mmHg 82%
    21:00 +11°C° 0 mm 3 mps 730 mmHg 85%
    22:00 +9°C° 0 mm 3 mps 731 mmHg 89%
    23:00 +9°C° 0 mm 2 mps 731 mmHg 90%

    2 May, Tuesday

    Time Temperature Precipitation Wind Pressure Humidity
    00:00 +8°C° 0 mm 2 mps 731 mmHg 91%
    01:00 +8°C° 0 mm 2 mps 731 mmHg 92%
    02:00 +7°C° 0 mm 2 mps 731 mmHg 92%
    03:00 +7°C° 0 mm 1 mps 731 mmHg 92%
    04:00 +7°C° 0 mm 1 mps 732 mmHg 93%
    05:00 +9°C° 0 mm 1 mps 732 mmHg 88%
    06:00 +11°C° 0 mm 1 mps 732 mmHg 83%
    07:00 +13°C° 0 mm 1 mps 733 mmHg 78%
    08:00 +15°C° 0 mm 1 mps 733 mmHg 72%
    09:00 +18°C° 0 mm 1 mps 733 mmHg 66%
    10:00 +19°C° 0 mm 1 mps 733 mmHg 59%
    11:00 +20°C° 0 mm 2 mps 733 mmHg 58%
    12:00 +21°C° 0 mm 2 mps 733 mmHg 56%
    13:00 +23°C° 0 mm 2 mps 733 mmHg 54%
    14:00 +23°C° 0.1 mm 2 mps 733 mmHg 57%
    15:00 +23°C° 0.1 mm 2 mps 733 mmHg 59%
    16:00 +23°C° 0.1 mm 2 mps 733 mmHg 62%
    17:00 +20°C° 0.2 mm 2 mps 733 mmHg 71%
    18:00 +18°C° 0.2 mm 2 mps 733 mmHg 79%
    19:00 +16°C° 0.2 mm 2 mps 733 mmHg 88%
    20:00 +15°C° 0 mm 2 mps 734 mmHg 90%
    21:00 +14°C° 0 mm 2 mps 734 mmHg 91%
    22:00 +12°C° 0 mm 2 mps 734 mmHg 93%
    23:00 +12°C° 0 mm 2 mps 734 mmHg 93%
    Show more